Regional Weather Roundup
Issued by NWS

Home | Current Version | Previous Version | Graphics & Text | Print | Product List | Glossary On
Versions: 1 2 3 4 5 6 7 8 9 10 11 12 13 14 15 16 17 18 19 20 21 22 23 24 25 26 27 28
000
ASUS45 KPSR 280210
RWRAZ

ARIZONA HOURLY REGIONAL WEATHER ROUNDUP
NATIONAL WEATHER SERVICE PHOENIX AZ
700 PM MST TUE SEP 27 2016

NOTE: FAIR INDICATES FEW OR NO CLOUDS BELOW 12,000 FEET WITH NO
SIGNIFICANT WEATHER AND/OR OBSTRUCTIONS TO VISIBILITY.

AZZ001>003-036-280300-
NORTHWEST ARIZONA

CITY           SKY/WX    TMP DP  RH WIND       PRES   REMARKS
BULLHEAD CITY  PTCLDY    88  48  25 S9        29.86S
KINGMAN        PTCLDY    74  48  39 SE9       30.03R
$$

AZZ004>008-015-016-018-280300-
NORTH CENTRAL ARIZONA

CITY           SKY/WX    TMP DP  RH WIND       PRES   REMARKS
GRAND CANYON   PTCLDY    60  39  45 E7        30.24S
PRESCOTT       PTCLDY    64  46  52 S5        30.13R
FLAGSTAFF      TSTM      59  43  55 E21G29    30.24R
PAYSON         CLEAR     63  50  63 S5        30.17R
PAGE           CLOUDY    74  35  24 SW7       30.09S
$$

AZZ009>014-017-280300-
NORTHEAST ARIZONA

CITY           SKY/WX    TMP DP  RH WIND       PRES   REMARKS
WINSLOW        CLOUDY    66  48  52 NW6       30.14F
SAINT JOHNS    RAIN      59  53  80 S5        30.17R
WINDOW ROCK    PTCLDY    57  39  51 CALM      30.25R
SHOW LOW       CLOUDY    55  50  82 SW6       30.23S
$$

AZZ023-280300-
GREATER PHOENIX AREA

CITY           SKY/WX    TMP DP  RH WIND       PRES   REMARKS
PHOENIX        BLWGDUST  81  50  33 S18G28    29.90R VSB 1
BUCKEYE        CLEAR     82  48  30 E6        29.90R
GLENDALE       PTCLDY    84  52  32 CALM      29.90R
LUKE AFB       PTCLDY    84  49  30 N3        29.88R
DEER VALLEY    CLEAR     84  45  25 CALM      29.90R
SCOTTSDALE     PTCLDY    84  49  29 S3        29.92R
CHANDLER       MOCLDY    81  54  39 S17       29.90R
$$

AZZ027-028-280300-
SOUTHWEST MARICOPA COUNTY AND PINAL COUNTY

CITY           SKY/WX    TMP DP  RH WIND       PRES   REMARKS
CASA GRANDE    CLOUDY    75  52  43 W10       29.93F
GILA BEND      MOCLDY    81  55  41 SE18      29.87R
$$

AZZ503-504-507>509-280300-
SOUTHEAST ARIZONA

CITY           SKY/WX    TMP DP  RH WIND       PRES   REMARKS
TUCSON         PTCLDY    75  56  51 NE3       29.98R
DAVIS-MONTHAN  CLOUDY    73  60  63 NE5       29.97R
RYAN FIELD     PTCLDY    75  55  50 SE9       29.97R
NOGALES        PTCLDY    69  56  62 NE6       30.03R
SIERRA VISTA   CLOUDY    63  55  77 S12       30.11R
DOUGLAS        CLOUDY    70  52  52 E13       30.08R
SAFFORD        LGT RAIN  70  50  49 CALM      30.02S
$$

AZZ020-021-025-026-031-280300-
SOUTHWEST ARIZONA

CITY           SKY/WX    TMP DP  RH WIND       PRES   REMARKS
YUMA           MOCLDY    87  50  27 NE6       29.82S
$$

CAZ031-033-041-043-047-048-061-280300-
SOUTHERN CALIFORNIA

CITY           SKY/WX    TMP DP  RH WIND       PRES   REMARKS
DOWNTOWN L.A.  PTCLDY    82  52  35 W3        29.85R
L.A. AIRPORT   PTCLDY    80  50  34 W12       29.85R
SAN DIEGO      MOCLDY    78  56  46 S6        29.86R
BURBANK        PTCLDY    83  49  30 SE6       29.87R
ONTARIO        PTCLDY    84  48  28 SW12      29.87R
RIVERSIDE      MOCLDY    85  49  28 W8        29.87R
PALM SPRINGS   MOCLDY    85  53  33 CALM      29.87F
EL CENTRO NAS  PTCLDY    87  48  25 NW7       29.82S
IMPERIAL       PTCLDY    90  55  30 NW5       29.80S
BLYTHE         PTCLDY    88  50  27 NE7       29.84R
NEEDLES          N/A    N/A N/A N/A MISG      29.89R
$$

NVZ020-UTZ003-280300-
SOUTHERN NEVADA-UTAH

CITY           SKY/WX    TMP DP  RH WIND       PRES   REMARKS
LAS VEGAS      CLOUDY    86  39  19 S3        29.94S
SALT LAKE CITY CLEAR     68  50  52 W6        30.13R
$$

NMZ009-TXZ055-280300-
NEW MEXICO-WEST TEXAS

CITY           SKY/WX    TMP DP  RH WIND       PRES   REMARKS
ALBUQUERQUE    PTCLDY    72  40  31 SW7       30.18S
EL PASO        PTCLDY    69  47  45 S6        30.12S
$$


........................KEY........................
SKY/WX - SKY CONDITION/WEATHER
TMP    - TEMPERATURE IN FAHRENHEIT
DP     - DEW POINT IN FAHRENHEIT
RH     - RELATIVE HUMIDITY IN PERCENT
WIND   - DIRECTION AND SPEED IN MILES PER HOUR (MPH)
VRB    - VARIABLE WIND DIRECTION
PRES   - MEAN SEA LEVEL PRESSURE IN INCHES OF MERCURY
         F - FALLING PRESSURE   R - RISING PRESSURE
         S - STEADY PRESSURE
VSB    - VISIBILITY IN MILES
HX     - HEAT INDEX IN FAHRENHEIT
WCI    - WIND CHILL INDEX IN FAHRENHEIT
TC     - TEMPERATURE IN CELSIUS WHICH IS ALSO KNOWN AS
         TEMPERATURE IN CENTIGRADE
AFB    - AIR FORCE BASE
         LUKE AFB IS LUKE AIR FORCE BASE
         DAVIS-MONTHAN IS DAVIS-MONTHAN AIR FORCE BASE
NAS    - NAVAL AIR STATION
         EL CENTRO NAS IS EL CENTRO NAVAL AIR STATION
N/A    - NOT AVAILABLE





USA.gov is the U.S. government's official web portal to all federal, state and local government web resources and services.